www.pogodaiklimat.ru

Погода и климат >> Архив погоды >> Россия >> Бурятия >> Санага


ПОГОДА в Санаге

  • Прогноз погоды в Санаге
  • Монитор погоды в Санаге

АРХИВ ПОГОДЫ в Санаге

Время (UTC), дата Ветер
(напр.,м/с)
 
Видим.   Явления Облачность Т
(С)
Тd
(С)
f
(%)
Тe
(С)
Тes
(С)
Комфортность P
(гПа)
Po
(гПа)
Тmin
(С)
Tmax
(С)
R
(мм)
R24
(мм)
S
(см)
09 19.04 СЗ 6 н/о н/о +2.5 -35.6 4 -2 1017.1 881.3
12 19.04 СЗ 5
{11}
50 км ясно -0.3 -16.9 27 -5 -5 883.4 +5.5 0.0
15 19.04 штиль 0 н/о н/о -5.7 -27.5 16 -6 1026.1 885.3
18 19.04 З 1 50 км ясно -8.5 -15.1 59 -11 -11 1029.2 886.7
21 19.04 С 3 н/о н/о -11.3 -24.3 33 -17 1029.3 885.3
00 20.04 СЗ 2 50 км 6/0
[Ac trans Ci fib]
-9.1 -14.7 64 -13 -12 884.3 -11.6
03 20.04 СЗ 1 н/о н/о 0.0 -15.1 31 1020.0 882.7
06 20.04 Ю 2 50 км 10/0
[Ac lent Ci fib]
+5.1 -11.9 28 +4 +4 1014.1 880.0
09 20.04 ЮЗ 4 н/о н/о +7.3 1010.0 877.3
12 20.04 ЮВ 1 50 км 1/0
[Ci fib]
+2.8 -15.5 25 +2 +2 875.5 +7.8
15 20.04 С 2 н/о н/о -3.1 -23.4 19 -6 1015.4 877.3
18 20.04 Ю 1 50 км 2 балла -6.5 -10.0 76 -9 -9 1015.6 876.0
21 20.04 штиль 0 н/о н/о -9.2 -17.7 50 -9 1017.2 876.0
00 21.04 В 1 50 км 3/0
[Ac lent]
-4.3 -8.1 75 -6 -5 874.5 -9.8
03 21.04 штиль 0 н/о н/о +1.3 -23.2 14 +2 1008.4 873.3
06 21.04 Ю 1 50 км 10/0
[Ac lent Ci fib]
+10.0 -5.5 33 +10 +10 1000.9 870.7
09 21.04 В 1 н/о н/о +15.9 -21.7 6 +17 993.6 866.7
12 21.04 СЗ 3
{11}
50 км 8/6 1000 м
[Sc Ci fib]
+12.1 -3.0 35 +11 +11 866.5 +16.5
15 21.04 З 3 н/о н/о +6.4 -6.9 38 +4 1001.0 869.3
18 21.04 С 2 50 км слаб. ливневой снег 10/10 1000 м
[Sc]
+3.6 +2.1 90 +1 +1 1006.9 873.3
21 21.04 З 1 н/о н/о -0.8 -4.0 79 -3 1010.9 874.7
00 22.04 штиль 0 50 км 3/3 1000 м
[Sc Ci fib]
+0.4 -1.3 88 -1 +1 877.2 -1.3 0.6
03 22.04 С 1 н/о н/о +2.9 -14.2 27 +2 1015.3 880.0
06 22.04 С 1 50 км 9/9 1000 м
[Cb calv]
+7.0 -7.4 35 +7 +8 1011.6 878.7
09 22.04 СЗ 4 н/о н/о +8.9 1010.8 878.7
12 22.04 В 4
{10}
50 км 10/3 1000 м
[Sc Ci fib]
+3.5 -11.2 33 -0 -0 879.6 +9.2
15 22.04 С 1 н/о н/о -2.7 -13.8 42 -4 1022.8 884.0
18 22.04 С 3 50 км ясно -5.4 -9.6 72 -11 -11 884.9
21 22.04 С 3 н/о н/о -6.4 -15.1 50 -12 1029.5 888.0
00 23.04 С 2 50 км 3/0
[Ac trans]
-5.2 -7.3 85 -9 -8 889.7 -8.4
06 23.04 СВ 3 50 км 1/1 1000 м
[Cu hum]
+5.1 -9.8 33 +3 +13 опасность
простуды
1023.3 888.0
09 23.04 В 1 н/о н/о +7.5 -32.0 4 +8 1020.7 886.7
12 23.04 ЮЗ 1 50 км ясно +4.0 -13.2 27 +4 +4 885.1 +8.4
15 23.04 СЗ 1 н/о н/о -0.2 -25.3 13 -1 1026.2 888.0
18 23.04 В 1 50 км 6/0
[Ci fib]
-2.8 -12.8 46 -4 -4 1027.5 888.0
21 23.04 С 3 н/о н/о -5.4 -19.8 31 -10 1029.0 888.0
00 24.04 штиль 0 50 км 10/0
[Ac lent Ci fib]
-4.1 -10.5 61 -5 -5 1028.2 888.0 -6.2
03 24.04 Ю 1 н/о н/о +4.1 -24.8 10 +4 1020.8 885.3
06 24.04 Ю 3 50 км 4 балла +9.1 -5.6 35 +7 +14 1015.1 882.7
09 24.04 ЮВ 2 н/о н/о +10.6 -27.5 5 +10 1011.5 880.0
12 24.04 Ю 1 50 км 3/3 1000 м
[Sc Ci fib]
+6.1 -9.3 32 +6 +6 878.8 +11.1
15 24.04 С 2 н/о н/о +0.5 -17.7 24 -2 1016.5 880.0
18 24.04 штиль 0 50 км ясно -6.0 -10.8 69 -7 -7 1021.5 881.3
21 24.04 штиль 0 н/о н/о -7.6 -16.4 49 -8 1024.1 882.7
00 25.04 С 1 20 км 3/0
[Ac lent]
-2.8 -18.2 29 -4 -2 883.1 -8.6
03 25.04 СЗ 1 н/о н/о +9.2 -23.4 8 +10 1016.7 884.0
06 25.04 ЮВ 3 50 км 7 баллов +11.2 -4.9 32 +10 +13 1014.1 882.7
09 25.04 ЮЗ 3 н/о н/о +14.1 -27.4 4 +14 1009.8 880.0
12 25.04 ЮЗ 4 50 км 10/0
[Ac lent Ci fib]
+10.6 -7.7 27 +9 +9 878.8 +14.3
15 25.04 ЮВ 1 н/о н/о +4.5 -15.9 21 +4 1014.4 880.0
18 25.04 С 3 н/о 10 баллов +1.2 -16.6 25 -2 -2 1014.7 878.7
21 25.04 С 2 н/о н/о +1.6 -14.9 28 -1 1014.4 878.7
00 26.04 ЮВ 1 50 км 10/10 1000 м
[Sc]
+1.2 -4.0 68 -0 -0 878.2 -1.3
03 26.04 С 1 н/о н/о +8.7 -19.1 12 +9 1010.9 878.7
06 26.04 ЮЗ 1 50 км 10 баллов +14.3 -1.0 35 +15 +15 1006.3 877.3

 

Местоположение метеостанции Санага (Бурятия, Россия): широта 50.72 долгота 102.70 высота над уровнем моря 1172 м.

В архиве по умолчанию представлена погода в Санаге за последнюю неделю. Архивные данные за месяц целиком и за предыдущие месяцы, начиная с января 2011 года, Вы можете получить, выбрав интересующий диапазон дат из раскрывающегося списка и нажав кнопку "Ввод!".


*Определитесь, кто Вы:
робот инопланетянин человек

Внимание! Время в таблицах - всемирное. Для получения местного времени необходимо прибавить поправку, которая равна 8 ч.

Смотрите также архив погоды в соседних городах и на ближайших метеорологических станциях:

Погода в Цакире (Бурятия, Россия) (71 км)
Погода в Хамар-Дабан (Иркутская область, Россия) (110 км)
Погода в Тунке (Бурятия, Россия) (113 км)
Погода в Кырене (Бурятия, Россия) (115 км)
Погода в Култуке (Иркутская область, Россия) (131 км)
Погода ву Тариалане (Монголия) (137 км)
Погода в Байкальске (Иркутская область, Россия) (142 км)
Погода в Хутаге (Монголия) (149 км)
Погода в Торее (Бурятия, Россия) (152 км)
Погода в Дабадах (Иркутская область, Россия) (153 км)

Пояснения к столбцам:

Ветер - указаны скорость ветра в м/с - средняя за 10 мин, порывы в срок и между сроками (в фигурных скобках) и направление, откуда дует ветер: С - северный, СВ - северо-восточный, В - восточный, ЮВ - юго-восточный, Ю - южный, ЮЗ - юго-западный, З - западный, СЗ - северо-западный.
Видимость - горизонтальная дальность видимости в метрах или километрах. При видимости от 1 до 10 км при отсутствии осадков обычно наблюдается дымка, при ухудшении видимости до 1 км и менее - туман. В сухую погоду видимость может ухудшаться дымом, пылью или мглою.
Явления - указаны атмосферные явления, наблюдавшиеся в срок или в последний час перед сроком; фигурными скобками обозначены явления, наблюдавшиеся между сроками (за 1-3 часа до срока); квадратными скобками обозначены град или гололедные отложения с указанием их диаметра в мм.
Облачность - указаны через наклонную черту общая и нижняя облачность в баллах и высота нижней границы облаков в метрах; квадратными скобками обозначены формы облаков: Ci - перистые, Cs - перисто-слоистые, Cc - перисто-кучевые, Ac - высококучевые, As - высокослоистые, Sc - слоисто-кучевые, Ns - слоисто-дождевые, Cu - кучевые, Cb - кучево-дождевые. Подробнее классификацию облаков см. в Атласе облаков (PDF).
T - Температура воздуха - температура, измеренная на высоте 2 м над землей.
Td - Температура точки росы - температура, при понижении до которой содержащийся в воздухе водяной пар достигнет насыщения.
f - Относительная влажность воздуха - влажноcть воздуха, измеренная на высоте 2 м над землей.
Te - Эффективная температура - температура, которую ощущает одетый по сезону человек в тени. Характеристика душности погоды. При расчете учитывается влияние влажности воздуха и скорости ветра на теплоощущения человека.
Tes - Эффективная температура на солнце - температура, которую ощущает человек, с поправкой на солнечный нагрев. Характеристика знойности погоды. Зависит от высоты солнца над горизонтом, облачности и скорости ветра. Ночью, в пасмурную погоду, а также при ветре 12 м/с и более поправка равна нулю.
P - Атмосферное давление - приведенное к уровню моря атмосферное давление.
Po - Атмосферное давление - измеренное на уровне метеостанции атмосферное давление.
Tmin - Минимальная температура - минимум температуры воздуха на высоте 2 м над землей.
Tmax - Максимальная температура - максимум температуры воздуха на высоте 2 м над землей.
R - Количество осадков - Количество выпавших осадков за период времени, мм. При наведении курсора мыши на число - период времени, за который выпало указанное количество осадков.
R24 - Количество осадков - Количество выпавших осадков за 24 часа, мм.
S - Снежный покров - Высота снежного покрова, см. При наведении курсора мыши на число - состояние снежного покрова и степень покрытия местности в баллах.